Home   Weather   Montpellier   Past weeks
Flag for France

Past Weather in Montpellier, Occitanie, France — Yesterday and Last 2 Weeks

Now
68 °F

Clear.


Feels Like: 68 °F
Forecast: 91 / 74 °F
Wind: 6 mph from North

Location: Montpellier Airport

Current Time: Jul 17, 2019 at 2:44:25 am

Latest Report: Jul 17, 2019 at 2:00 am


Visibility: 10 mi

Pressure: 29.92 "Hg

Humidity: 69%

Dew Point: 57 °F

Location of MontpellierLocation

Past Weather in Montpellier — Graph

°F

Montpellier Temperature Yesterday

Maximum temperature yesterday: 84 °F (at 12:00 pm)
Minimum temperature yesterday: 68 °F (at 6:30 am)
Average temperature yesterday: 78 °F

High & Low Weather Summary for the Past Weeks

 TemperatureHumidityPressure
High99 °F (Jul 12, 4:00 pm)100% (Jul 5, 6:30 am)30.04 "Hg (Jul 5, 6:30 am)
Low63 °F (Jul 11, 6:00 am)21% (Jul 10, 2:30 pm)29.74 "Hg (Jul 14, 4:30 pm)
Average80 °F56%29.90 "Hg
* Reported Jul 2 1:00 am — Jul 17 1:30 am, Montpellier. Weather by CustomWeather, © 2019

Note: Actual official high and low records may vary slightly from our data, if they occured in-between our weather recording intervals... More about our weather records

Advertising

Montpellier Weather History for the Previous 24 Hours

Scroll right to see more
 ConditionsComfort  
Time TempWeatherWind HumidityBarometerVisibility
1:30 am
Wed, Jul 17
68 °FClear.2 mph69%29.95 "Hg10 mi
1:00 am70 °FClear.3 mph69%29.95 "Hg10 mi
12:30 am68 °FClear.5 mph73%29.95 "Hg10 mi
12:00 am75 °FClear.2 mph61%29.92 "Hg10 mi
11:30 pm
Tue, Jul 16
75 °FClear.6 mph61%29.95 "Hg10 mi
11:00 pm75 °FClear.8 mph61%29.95 "Hg10 mi
10:30 pm77 °FClear.10 mph61%29.95 "Hg10 mi
10:00 pm77 °FClear.12 mph57%29.92 "Hg10 mi
9:30 pm79 °FClear.9 mph42%29.92 "Hg10 mi
9:00 pm79 °FSunny.12 mph48%29.92 "Hg10 mi
8:30 pm79 °FSunny.14 mph54%29.92 "Hg10 mi
8:00 pm81 °FSunny.16 mph58%29.92 "Hg10 mi
7:30 pm79 °FSunny.16 mph61%29.92 "Hg10 mi
7:00 pm81 °FSunny.12 mph58%29.92 "Hg10 mi
6:30 pm81 °FSunny.9 mph48%29.92 "Hg10 mi
6:00 pm81 °FSunny.10 mph48%29.92 "Hg10 mi
5:30 pm81 °FSunny.12 mph45%29.92 "Hg10 mi
5:00 pm82 °FSunny.12 mph42%29.95 "Hg10 mi
4:30 pm82 °FSunny.15 mph42%29.95 "Hg10 mi
4:00 pm82 °FSunny.14 mph48%29.95 "Hg10 mi
3:30 pm84 °FSunny.14 mph43%29.95 "Hg10 mi
3:00 pm84 °FSunny.10 mph35%29.95 "Hg10 mi
2:30 pm84 °FSunny.15 mph35%29.95 "Hg10 mi
2:00 pm82 °FSunny.15 mph40%29.95 "Hg10 mi
1:30 pm82 °FSunny.12 mph40%29.95 "Hg10 mi
1:00 pm84 °FSunny.12 mph40%29.95 "Hg10 mi
12:30 pm82 °FSunny.8 mph40%29.95 "Hg10 mi
12:00 pm84 °FPassing clouds.10 mph35%29.98 "HgN/A
11:30 am82 °FPassing clouds.8 mph35%29.98 "HgN/A
11:00 am82 °FPassing clouds.9 mph35%29.98 "HgN/A
10:30 am81 °FPassing clouds.12 mph37%29.98 "HgN/A
10:00 am81 °FSunny.12 mph37%29.98 "Hg10 mi
9:30 am81 °FPassing clouds.12 mph34%29.98 "HgN/A
9:00 am79 °FPassing clouds.3 mph37%29.98 "HgN/A
8:30 am77 °FPassing clouds.5 mph39%29.98 "HgN/A
8:00 am75 °FSunny.5 mph44%29.98 "Hg10 mi
7:30 am72 °FSunny.6 mph47%29.95 "Hg10 mi
7:00 am72 °FSunny.6 mph47%29.95 "Hg10 mi
6:30 am68 °FSunny.8 mph49%29.95 "Hg10 mi
6:00 am70 °FClear.8 mph50%29.95 "Hg10 mi
5:30 am70 °FClear.5 mph50%29.95 "Hg10 mi
5:00 am70 °FClear.7 mph50%29.95 "Hg10 mi
4:30 am70 °FClear.9 mph50%29.95 "Hg10 mi
4:00 am73 °FPassing clouds.6 mph44%29.95 "HgN/A
3:30 am73 °FPassing clouds.5 mph41%29.95 "HgN/A
3:00 am75 °FClear.9 mph39%29.95 "Hg10 mi
2:30 am73 °FClear.8 mph41%29.95 "Hg10 mi
2:00 am75 °FClear.6 mph39%29.95 "Hg10 mi
Weather by CustomWeather, © 2019

See weather overview

LIVE PARTIAL LUNAR ECLIPSE – Watch the eclipse as it happens